Prairie Du Chien, WI

2:53 AM CDT on September 23, 2017 (GMT -0500)
Prairie Du Chien Municipal

Weather History for KPDC - May, 2013

Change the Weather History Date:

Monday, May 13, 2013

  Actual Average Record
Temperature  
Mean Temperature 49 °F -  
Max Temperature 67 °F 72 °F 88 °F (1961)
Min Temperature 32 °F 44 °F 32 °F (1953)
Degree Days  
Heating Degree Days 16    
Moisture  
Dew Point 32 °F    
Average Humidity 53    
Maximum Humidity 94    
Minimum Humidity 21    
Precipitation  
Precipitation 0.00 in - - ()
Sea Level Pressure  
Sea Level Pressure 30.05 in    
Wind  
Wind Speed 2 mph (SSE)    
Max Wind Speed 10 mph    
Max Gust Speed 17 mph    
Visibility 10 miles    
Events Rain    
Averages and records for this station are not official NWS values.
T = Trace of Precipitation, MM = Missing Value Source: NWS Daily Summary

Daily Weather History Graph

Daily Weather History Graph

Search for Another Location

Airport or City:

Trip Planner

Search our weather history database for the weather conditions in past years. The results will help you decide how hot, cold, wet, or windy it might be!

Date:

Astronomy

May. 13, 2013 Rise Set
Actual Time 5:43 AM CDT 8:19 PM CDT
Civil Twilight 5:10 AM CDT 8:51 PM CDT
Nautical Twilight 4:30 AM CDT 9:32 PM CDT
Astronomical Twilight 3:43 AM CDT 10:19 PM CDT
Moon 8:28 AM CDT (5/13) 11:28 PM CDT (5/13)
Length of Visible Light 15h 41m
Length of Day
14h 36m
Waxing Crescent, 12% of the Moon is Illuminated
May 13
Waxing Crescent
May 17
First Quarter
May 24
Full
May 31
Last Quarter
Jun 8
New

Hourly Weather History & Observations

Time (CDT) Temp. Windchill Dew Point Humidity Pressure Visibility Wind Dir Wind Speed Gust Speed Precip Events Conditions
12:15 AM 37.4 °F - 29.5 °F 73% 30.12 in 10.0 mi Calm Calm - N/A   Clear
12:35 AM 36.5 °F - 30.7 °F 80% 30.12 in 10.0 mi Calm Calm - N/A   Clear
12:55 AM 36.5 °F - 29.7 °F 76% 30.13 in 10.0 mi Calm Calm - N/A   Clear
1:15 AM 35.8 °F - 30.2 °F 80% 30.13 in 10.0 mi Calm Calm - N/A   Clear
1:35 AM 35.4 °F - 30.2 °F 81% 30.13 in 10.0 mi Calm Calm - N/A   Clear
1:55 AM 34.7 °F - 30.2 °F 84% 30.13 in 10.0 mi Calm Calm - N/A   Clear
2:15 AM 34.2 °F - 30.0 °F 85% 30.12 in 10.0 mi Calm Calm - N/A   Clear
2:35 AM 34.0 °F - 30.0 °F 85% 30.12 in 10.0 mi Calm Calm - N/A   Clear
2:55 AM 34.0 °F - 30.0 °F 85% 30.12 in 10.0 mi Calm Calm - N/A   Clear
3:15 AM 33.1 °F - 29.8 °F 88% 30.12 in 10.0 mi Calm Calm - N/A   Clear
3:35 AM 33.3 °F - 30.0 °F 88% 30.12 in 10.0 mi Calm Calm - N/A   Clear
3:55 AM 33.3 °F - 30.4 °F 89% 30.12 in 10.0 mi Calm Calm - N/A   Clear
4:15 AM 33.4 °F - 30.6 °F 89% 30.12 in 10.0 mi Calm Calm - N/A   Clear
4:35 AM 32.9 °F - 30.6 °F 91% 30.12 in 10.0 mi Calm Calm - N/A   Clear
4:55 AM 32.4 °F - 30.4 °F 92% 30.12 in 10.0 mi Calm Calm - N/A   Clear
5:15 AM 32.0 °F - 30.0 °F 92% 30.12 in 10.0 mi Calm Calm - N/A   Clear
5:35 AM 32.0 °F - 30.2 °F 93% 30.12 in 10.0 mi Calm Calm - N/A   Clear
5:55 AM 32.0 °F - 30.4 °F 94% 30.13 in 10.0 mi Calm Calm - N/A   Clear
6:15 AM 33.3 °F 30.2 °F 31.8 °F 94% 30.14 in 10.0 mi East 3.5 mph - N/A   Clear
6:35 AM 34.5 °F 31.6 °F 32.0 °F 90% 30.14 in 10.0 mi East 3.5 mph - N/A   Clear
6:55 AM 35.8 °F 33.0 °F 32.7 °F 89% 30.15 in 10.0 mi ESE 3.5 mph - N/A   Clear
7:15 AM 37.4 °F 33.8 °F 34.2 °F 88% 30.15 in 10.0 mi East 4.6 mph - N/A   Clear
7:35 AM 38.5 °F - 34.7 °F 86% 30.15 in 10.0 mi Calm Calm - N/A   Clear
7:55 AM 41.0 °F - 36.1 °F 83% 30.16 in 10.0 mi Calm Calm - N/A   Clear
8:15 AM 43.3 °F - 37.2 °F 79% 30.16 in 10.0 mi Calm Calm - N/A   Clear
8:35 AM 45.5 °F - 35.2 °F 67% 30.16 in 10.0 mi Calm Calm - N/A   Clear
8:55 AM 47.8 °F - 36.0 °F 63% 30.16 in 10.0 mi Calm Calm - N/A   Clear
9:15 AM 50.4 °F - 36.0 °F 58% 30.16 in 10.0 mi Calm Calm - N/A   Clear
9:35 AM 52.7 °F - 32.4 °F 46% 30.15 in 10.0 mi South 3.5 mph - N/A   Clear
9:55 AM 54.5 °F - 27.1 °F 35% 30.15 in 10.0 mi South 4.6 mph - N/A   Clear
10:15 AM 56.3 °F - 28.2 °F 34% 30.14 in 10.0 mi East 3.5 mph - N/A   Clear
10:35 AM 57.9 °F - 27.3 °F 31% 30.14 in 10.0 mi South 4.6 mph - N/A   Clear
10:55 AM 58.8 °F - 25.5 °F 28% 30.14 in 10.0 mi South 5.8 mph - N/A   Clear
11:15 AM 60.3 °F - 25.5 °F 27% 30.13 in 10.0 mi SE 3.5 mph - N/A   Clear
11:35 AM 61.0 °F - 25.3 °F 26% 30.12 in 10.0 mi SSE 5.8 mph - N/A   Clear
11:55 AM 61.5 °F - 25.9 °F 26% 30.11 in 10.0 mi South 3.5 mph - N/A   Clear
12:15 PM 62.6 °F - 27.7 °F 27% 30.11 in 10.0 mi SSE 3.5 mph - N/A   Clear
12:35 PM 63.1 °F - 28.6 °F 27% 30.09 in 10.0 mi South 5.8 mph - N/A   Clear
12:55 PM 64.2 °F - 26.8 °F 24% 30.08 in 10.0 mi South 5.8 mph - N/A   Clear
1:15 PM 64.2 °F - 27.0 °F 24% 30.07 in 10.0 mi SSW 4.6 mph - N/A   Clear
1:35 PM 64.6 °F - 24.4 °F 22% 30.06 in 10.0 mi South 9.2 mph - N/A   Clear
1:55 PM 65.5 °F - 26.2 °F 23% 30.05 in 10.0 mi South 6.9 mph - N/A   Clear
2:15 PM 66.6 °F - 26.1 °F 22% 30.04 in 10.0 mi South 9.2 mph - N/A   Clear
2:35 PM 66.7 °F - 25.2 °F 21% 30.03 in 10.0 mi South 8.1 mph - N/A   Scattered Clouds
3:35 PM 65.7 °F - 25.5 °F 22% 30.00 in 10.0 mi South 9.2 mph - N/A   Overcast
3:55 PM 64.6 °F - 32.0 °F 30% 30.01 in 10.0 mi SSW 5.8 mph - N/A   Light Drizzle
4:15 PM 62.8 °F - 32.7 °F 32% 29.99 in 10.0 mi SSE 4.6 mph - N/A Rain Light Rain
4:35 PM 62.8 °F - 37.9 °F 40% 29.99 in 10.0 mi SE 3.5 mph - N/A   Mostly Cloudy
4:55 PM 64.0 °F - 37.0 °F 37% 29.98 in 10.0 mi SE 4.6 mph - N/A   Mostly Cloudy
5:15 PM 64.6 °F - 34.0 °F 32% 29.97 in 10.0 mi ESE 5.8 mph - N/A   Scattered Clouds
5:35 PM 65.7 °F - 34.0 °F 31% 29.96 in 10.0 mi South 6.9 mph - N/A   Scattered Clouds
5:55 PM 66.4 °F - 32.5 °F 28% 29.95 in 10.0 mi SE 10.4 mph - N/A   Clear
6:35 PM 66.4 °F - 33.6 °F 30% 29.93 in 10.0 mi SSE 9.2 mph - N/A   Clear
7:15 PM 65.7 °F - 34.0 °F 31% 29.92 in 10.0 mi SE 6.9 mph - N/A   Scattered Clouds
7:35 PM 65.7 °F - 34.0 °F 31% 29.92 in 10.0 mi SE 6.9 mph - N/A   Scattered Clouds
7:55 PM 65.1 °F - 34.0 °F 31% 29.92 in 10.0 mi SE 6.9 mph - N/A   Clear
8:15 PM 64.8 °F - 34.0 °F 32% 29.91 in 10.0 mi SE 9.2 mph - N/A   Clear
8:35 PM 63.9 °F - 34.2 °F 33% 29.90 in 10.0 mi SE 6.9 mph - N/A   Clear
8:55 PM 63.5 °F - 34.3 °F 34% 29.90 in 10.0 mi SE 9.2 mph - N/A   Clear
9:15 PM 63.5 °F - 34.7 °F 34% 29.89 in 10.0 mi SE 6.9 mph - N/A   Clear
9:35 PM 63.0 °F - 35.1 °F 35% 29.89 in 10.0 mi SE 8.1 mph - N/A   Clear
9:55 PM 62.2 °F - 35.8 °F 37% 29.88 in 10.0 mi ESE 4.6 mph - N/A   Clear
10:15 PM 62.1 °F - 36.7 °F 39% 29.88 in 10.0 mi SE 6.9 mph - N/A   Clear
10:35 PM 62.1 °F - 38.1 °F 41% 29.86 in 10.0 mi SE 9.2 mph 17.3 mph N/A   Clear
10:55 PM 61.9 °F - 39.2 °F 43% 29.86 in 10.0 mi SE 5.8 mph - N/A   Clear
11:15 PM 61.7 °F - 39.9 °F 45% 29.85 in 10.0 mi SSE 3.5 mph - N/A   Clear
11:35 PM 60.6 °F - 40.5 °F 47% 29.84 in 10.0 mi ESE 3.5 mph - N/A   Clear
11:55 PM 61.0 °F - 40.8 °F 47% 29.84 in 10.0 mi Calm Calm - N/A   Clear